,,PA_Meas_PMT16A,,PR_Meas_QMR101_102,,RH_Meas_QMH101,,SR_Meas_QMS101,,TA_Meas_QMH101,,GenWind,,GenWind,
time,status,PA,status,PR,status,RH,status,SR,status,TA,status,DirAvg,status,SpdAvg,
2015-02-08, 07:32:04,VALID,918.708,VALID,0,VALID,86.3581,VALID,97.5566,VALID,20.678,VALID,171,VALID,0,
2015-02-08, 07:33:04,VALID,918.679,VALID,0,VALID,86.4038,VALID,127.962,VALID,20.756,VALID,171,VALID,0,
2015-02-08, 07:34:04,VALID,918.708,VALID,0,VALID,86.6325,VALID,157.616,VALID,20.873,VALID,171,VALID,0,
2015-02-08, 07:35:04,VALID,918.753,VALID,0,VALID,86.5258,VALID,128.929,VALID,21.0291,VALID,167,VALID,0,
2015-02-08, 07:36:04,VALID,918.768,VALID,0,VALID,86.1751,VALID,168.468,VALID,21.1657,VALID,138,VALID,0,
2015-02-08, 07:37:04,VALID,918.753,VALID,0,VALID,85.5957,VALID,169.435,VALID,21.2827,VALID,97,VALID,0,
2015-02-08, 07:38:04,VALID,918.76,VALID,0,VALID,84.5361,VALID,161.806,VALID,21.3803,VALID,123,VALID,0.700391,
2015-02-08, 07:39:04,VALID,918.755,VALID,0,VALID,84.2311,VALID,146.442,VALID,21.4177,VALID,172,VALID,0.898047,
2015-02-08, 07:40:04,VALID,918.739,VALID,0,VALID,84.193,VALID,147.839,VALID,21.4973,VALID,133,VALID,0.657812,
2015-02-08, 07:41:04,VALID,918.737,VALID,0,VALID,84.0787,VALID,159.228,VALID,21.4957,VALID,141,VALID,0.94375,
2015-02-08, 07:42:04,VALID,918.799,VALID,0,VALID,83.8804,VALID,167.823,VALID,21.5168,VALID,120,VALID,1.26758,
2015-02-08, 07:43:04,VALID,918.815,VALID,0,VALID,84.4141,VALID,171.154,VALID,21.4778,VALID,118,VALID,0,
2015-02-08, 07:44:04,VALID,918.811,VALID,0,VALID,85.0011,VALID,174.377,VALID,21.5168,VALID,108,VALID,0,
2015-02-08, 07:45:04,VALID,918.846,VALID,0,VALID,84.8639,VALID,176.096,VALID,21.5559,VALID,128,VALID,0,
2015-02-08, 07:46:04,VALID,918.837,VALID,0,VALID,84.1549,VALID,167.716,VALID,21.5932,VALID,130,VALID,0,
2015-02-08, 07:47:04,VALID,918.873,VALID,0,VALID,84.8486,VALID,128.285,VALID,21.5737,VALID,150,VALID,0,
2015-02-08, 07:48:04,VALID,918.891,VALID,0,VALID,84.6275,VALID,51.0345,VALID,21.5916,VALID,173,VALID,0,
2015-02-08, 07:49:04,VALID,918.891,VALID,0,VALID,84.9477,VALID,49.208,VALID,21.5754,VALID,128,VALID,0,
2015-02-08, 07:50:04,VALID,918.92,VALID,0,VALID,85.7101,VALID,55.6545,VALID,21.4957,VALID,114,VALID,0,
2015-02-08, 07:51:04,VALID,918.897,VALID,0,VALID,86.076,VALID,70.0516,VALID,21.3981,VALID,117,VALID,0,
2015-02-08, 07:52:04,VALID,918.876,VALID,0,VALID,86.0531,VALID,58.448,VALID,21.3006,VALID,105,VALID,0.192578,
2015-02-08, 07:53:04,VALID,918.87,VALID,0,VALID,85.5881,VALID,60.7043,VALID,21.1266,VALID,113,VALID,1.25,
2015-02-08, 07:54:04,VALID,918.902,VALID,0,VALID,86.5334,VALID,74.5642,VALID,21.0486,VALID,107,VALID,0.139062,
2015-02-08, 07:55:04,VALID,918.859,VALID,0,VALID,86.3581,VALID,117.756,VALID,20.969,VALID,98,VALID,0.199609,
2015-02-08, 07:56:04,VALID,918.871,VALID,0,VALID,86.1522,VALID,173.41,VALID,20.9706,VALID,107,VALID,0.330078,
2015-02-08, 07:57:04,VALID,918.888,VALID,0,VALID,86.4877,VALID,191.46,VALID,21.0096,VALID,89,VALID,0.2125,
2015-02-08, 07:58:04,VALID,918.881,VALID,0,VALID,86.7316,VALID,182.865,VALID,21.1071,VALID,112,VALID,0.446484,
2015-02-08, 07:59:04,VALID,918.905,VALID,0,VALID,86.3047,VALID,243.354,VALID,21.2031,VALID,104,VALID,0.137891,
2015-02-08, 08:00:04,VALID,918.956,VALID,0,VALID,86.7621,VALID,238.842,VALID,21.3998,VALID,115,VALID,0,
2015-02-08, 08:01:04,VALID,918.931,VALID,0,VALID,85.9235,VALID,260.008,VALID,21.5737,VALID,83,VALID,0,
2015-02-08, 08:02:04,VALID,918.965,VALID,0,VALID,84.8258,VALID,253.883,VALID,21.7688,VALID,93,VALID,0,
2015-02-08, 08:03:04,VALID,918.95,VALID,0,VALID,84.376,VALID,137.202,VALID,21.8859,VALID,107,VALID,0,
2015-02-08, 08:04:04,VALID,919.004,VALID,0,VALID,83.4612,VALID,105.507,VALID,21.8485,VALID,109,VALID,0,
2015-02-08, 08:05:04,VALID,918.979,VALID,0,VALID,84.4979,VALID,143.004,VALID,21.8274,VALID,122,VALID,0,
2015-02-08, 08:06:04,VALID,919.025,VALID,0,VALID,81.7078,VALID,165.459,VALID,21.7688,VALID,124,VALID,1.95352,
2015-02-08, 08:07:04,VALID,919.034,VALID,0,VALID,83.7051,VALID,129.896,VALID,21.7298,VALID,135,VALID,0.0160156,
2015-02-08, 08:08:04,VALID,919.044,VALID,0,VALID,83.9643,VALID,93.6887,VALID,21.6518,VALID,148,VALID,0,
2015-02-08, 08:09:04,VALID,919.062,VALID,0,VALID,84.8105,VALID,97.4491,VALID,21.6128,VALID,143,VALID,0,
2015-02-08, 08:10:04,VALID,919.08,VALID,0,VALID,84.6428,VALID,229.602,VALID,21.5542,VALID,157,VALID,0,
2015-02-08, 08:11:04,VALID,919.106,VALID,0,VALID,85.3518,VALID,242.71,VALID,21.5542,VALID,165,VALID,0,
2015-02-08, 08:12:04,VALID,919.147,VALID,0,VALID,85.024,VALID,159.98,VALID,21.5737,VALID,137,VALID,0,
2015-02-08, 08:13:04,VALID,919.117,VALID,0,VALID,84.8486,VALID,160.625,VALID,21.6128,VALID,127,VALID,0,
2015-02-08, 08:14:04,VALID,919.161,VALID,0,VALID,84.9249,VALID,132.797,VALID,21.5916,VALID,128,VALID,0.0289063,
2015-02-08, 08:15:04,VALID,919.149,VALID,0,VALID,84.0177,VALID,125.169,VALID,21.5737,VALID,110,VALID,0.208594,
2015-02-08, 08:16:04,VALID,919.149,VALID,0,VALID,84.9782,VALID,117.97,VALID,21.5721,VALID,95,VALID,0.00429688,
2015-02-08, 08:17:04,VALID,919.194,VALID,0,VALID,85.4128,VALID,152.674,VALID,21.6128,VALID,106,VALID,0,
2015-02-08, 08:18:04,VALID,919.217,VALID,0,VALID,85.4585,VALID,213.486,VALID,21.6518,VALID,104,VALID,0.0863281,
2015-02-08, 08:19:04,VALID,919.239,VALID,0,VALID,83.7737,VALID,157.831,VALID,21.6696,VALID,140,VALID,0.0132813,
2015-02-08, 08:20:04,VALID,919.257,VALID,0,VALID,84.0253,VALID,125.384,VALID,21.7867,VALID,119,VALID,0,
2015-02-08, 08:21:04,VALID,919.295,VALID,0,VALID,83.4078,VALID,212.626,VALID,21.8452,VALID,161,VALID,0.0121094,
2015-02-08, 08:22:04,VALID,919.293,VALID,0,VALID,83.1486,VALID,263.875,VALID,21.8842,VALID,97,VALID,0,
2015-02-08, 08:23:04,VALID,919.268,VALID,0,VALID,83.5603,VALID,204.783,VALID,22.0208,VALID,116,VALID,0,
2015-02-08, 08:24:04,VALID,919.306,VALID,0,VALID,82.4396,VALID,243.891,VALID,22.0989,VALID,127,VALID,0.357812,
2015-02-08, 08:25:04,VALID,919.312,VALID,0,VALID,82.6607,VALID,414.938,VALID,22.1769,VALID,115,VALID,0.3625,
2015-02-08, 08:26:04,VALID,919.331,VALID,0,VALID,82.8665,VALID,405.161,VALID,22.333,VALID,139,VALID,0,
2015-02-08, 08:27:04,VALID,919.341,VALID,0,VALID,80.084,VALID,313.084,VALID,22.3916,VALID,136,VALID,1.74727,
2015-02-08, 08:28:04,VALID,919.321,VALID,0,VALID,81.2504,VALID,432.773,VALID,22.4111,VALID,153,VALID,0.651563,
2015-02-08, 08:29:04,VALID,919.343,VALID,0,VALID,81.3419,VALID,415.582,VALID,22.5086,VALID,157,VALID,0.25,
2015-02-08, 08:30:04,VALID,919.328,VALID,0,VALID,80.549,VALID,387.54,VALID,22.6257,VALID,67,VALID,1.75312,
2015-02-08, 08:31:04,VALID,919.323,VALID,0,VALID,79.779,VALID,409.566,VALID,22.7233,VALID,130,VALID,0.723437,
2015-02-08, 08:32:04,VALID,919.334,VALID,0,VALID,79.0624,VALID,419.558,VALID,22.7233,VALID,130,VALID,0.516016,
2015-02-08, 08:33:04,VALID,919.359,VALID,0,VALID,80.6481,VALID,287.083,VALID,22.8404,VALID,118,VALID,0.307031,
2015-02-08, 08:34:04,VALID,919.366,VALID,0,VALID,78.6127,VALID,270.215,VALID,22.8989,VALID,79,VALID,1.37148,
2015-02-08, 08:35:04,VALID,919.378,VALID,0,VALID,79.5656,VALID,253.883,VALID,22.8404,VALID,67,VALID,1.29844,
2015-02-08, 08:36:04,VALID,919.366,VALID,0,VALID,79.7028,VALID,411.177,VALID,22.7996,VALID,41,VALID,0.096875,
2015-02-08, 08:37:04,VALID,919.373,VALID,0,VALID,79.6037,VALID,127.64,VALID,22.8599,VALID,149,VALID,0.771875,
2015-02-08, 08:38:04,VALID,919.411,VALID,0,VALID,78.1858,VALID,162.129,VALID,22.8014,VALID,132,VALID,1.86367,
2015-02-08, 08:39:04,VALID,919.394,VALID,0,VALID,77.9266,VALID,157.186,VALID,22.5884,VALID,130,VALID,2.17852,
2015-02-08, 08:40:04,VALID,919.39,VALID,0,VALID,80.6481,VALID,151.707,VALID,22.3933,VALID,93,VALID,1.35781,
2015-02-08, 08:41:04,VALID,919.435,VALID,0,VALID,81.5553,VALID,135.698,VALID,22.2745,VALID,119,VALID,1.08633,
2015-02-08, 08:42:04,VALID,919.429,VALID,0,VALID,81.3495,VALID,354.341,VALID,22.1591,VALID,123,VALID,1.13945,
2015-02-08, 08:43:04,VALID,919.41,VALID,0,VALID,82.7827,VALID,234.544,VALID,22.1981,VALID,124,VALID,1.2293,
2015-02-08, 08:44:04,VALID,919.413,VALID,0,VALID,81.6697,VALID,300.728,VALID,22.1981,VALID,131,VALID,1.63633,
2015-02-08, 08:45:04,VALID,919.442,VALID,0,VALID,82.8437,VALID,167.608,VALID,22.255,VALID,112,VALID,0.485938,
2015-02-08, 08:46:04,VALID,919.4,VALID,0,VALID,82.2185,VALID,187.055,VALID,22.2745,VALID,86,VALID,0.308594,
2015-02-08, 08:47:04,VALID,919.408,VALID,0,VALID,82.0051,VALID,284.074,VALID,22.333,VALID,73,VALID,0,
2015-02-08, 08:48:04,VALID,919.436,VALID,0,VALID,81.7306,VALID,327.373,VALID,22.4306,VALID,89,VALID,0.0195313,
2015-02-08, 08:49:04,VALID,919.441,VALID,0,VALID,80.023,VALID,271.611,VALID,22.4111,VALID,140,VALID,2.07188,
2015-02-08, 08:50:04,VALID,919.455,VALID,0,VALID,80.2593,VALID,241.205,VALID,22.5103,VALID,133,VALID,0.00195313,
2015-02-08, 08:51:04,VALID,919.419,VALID,0,VALID,81.136,VALID,195.543,VALID,22.5477,VALID,138,VALID,0.479688,
2015-02-08, 08:52:04,VALID,919.427,VALID,0,VALID,79.619,VALID,240.238,VALID,22.6062,VALID,176,VALID,0.286719,
2015-02-08, 08:53:04,VALID,919.451,VALID,0,VALID,81.5401,VALID,444.377,VALID,22.7038,VALID,119,VALID,0.126563,
2015-02-08, 08:54:04,VALID,919.463,VALID,0,VALID,79.7181,VALID,536.131,VALID,22.7818,VALID,137,VALID,0,
2015-02-08, 08:55:04,VALID,919.471,VALID,0,VALID,79.8553,VALID,391.301,VALID,23.0746,VALID,137,VALID,0.829687,
2015-02-08, 08:56:04,VALID,919.48,VALID,0,VALID,79.5885,VALID,254.636,VALID,23.1136,VALID,112,VALID,1.29102,
2015-02-08, 08:57:04,VALID,919.487,VALID,0,VALID,78.1781,VALID,397.747,VALID,23.2307,VALID,159,VALID,0,
2015-02-08, 08:58:04,VALID,919.47,VALID,0,VALID,78.9786,VALID,333.282,VALID,23.4259,VALID,145,VALID,0,
2015-02-08, 08:59:04,VALID,919.511,VALID,0,VALID,78.0943,VALID,282.248,VALID,23.5821,VALID,97,VALID,0,
2015-02-08, 09:00:04,VALID,919.52,VALID,0,VALID,77.1337,VALID,382.598,VALID,23.662,VALID,85,VALID,0.0984375,
2015-02-08, 09:01:04,VALID,919.517,VALID,0,VALID,76.9889,VALID,306.744,VALID,23.5821,VALID,85,VALID,0,
2015-02-08, 09:02:04,VALID,919.524,VALID,0,VALID,75.6777,VALID,366.589,VALID,23.465,VALID,102,VALID,2.94922,
2015-02-08, 09:03:04,VALID,919.537,VALID,0,VALID,76.3485,VALID,458.559,VALID,23.3283,VALID,99,VALID,1.30469,
2015-02-08, 09:04:04,VALID,919.512,VALID,0,VALID,77.7512,VALID,201.989,VALID,23.1704,VALID,95,VALID,0.241797,
2015-02-08, 09:05:04,VALID,919.483,VALID,0,VALID,78.6737,VALID,511.098,VALID,23.1509,VALID,65,VALID,1.14922,
2015-02-08, 09:06:04,VALID,919.467,VALID,0,VALID,78.6432,VALID,204.568,VALID,23.0728,VALID,53,VALID,1.62266,
2015-02-08, 09:07:04,VALID,919.487,VALID,0,VALID,78.9862,VALID,199.841,VALID,23.0746,VALID,136,VALID,1.40039,
2015-02-08, 09:08:04,VALID,919.437,VALID,0,VALID,78.971,VALID,171.261,VALID,22.9948,VALID,151,VALID,0.00195313,
2015-02-08, 09:09:04,VALID,919.396,VALID,0,VALID,79.3598,VALID,135.376,VALID,22.9362,VALID,60,VALID,3.41211,
2015-02-08, 09:10:04,VALID,919.433,VALID,0,VALID,80.3127,VALID,139.244,VALID,22.8191,VALID,87,VALID,1.56719,
2015-02-08, 09:11:04,VALID,919.476,VALID,0,VALID,79.1311,VALID,172.121,VALID,22.6045,VALID,111,VALID,2.40625,
2015-02-08, 09:12:04,VALID,919.486,VALID,0,VALID,80.2746,VALID,192.749,VALID,22.4094,VALID,110,VALID,0.834766,
2015-02-08, 09:13:04,VALID,919.474,VALID,0,VALID,81.1818,VALID,171.261,VALID,22.333,VALID,131,VALID,0.849609,
2015-02-08, 09:14:04,VALID,919.506,VALID,0,VALID,82.4396,VALID,169.864,VALID,22.3135,VALID,88,VALID,0.127344,
2015-02-08, 09:15:04,VALID,919.501,VALID,0,VALID,81.4257,VALID,172.228,VALID,22.333,VALID,125,VALID,1.66328,
2015-02-08, 09:16:04,VALID,919.47,VALID,0,VALID,80.6405,VALID,165.997,VALID,22.1557,VALID,126,VALID,1.57227,
2015-02-08, 09:17:04,VALID,919.493,VALID,0,VALID,81.5858,VALID,164.492,VALID,22.0582,VALID,88,VALID,0.3,
2015-02-08, 09:18:04,VALID,919.498,VALID,0,VALID,82.249,VALID,155.79,VALID,22.0989,VALID,139,VALID,0.00585938,
2015-02-08, 09:19:04,VALID,919.477,VALID,0,VALID,82.2567,VALID,152.029,VALID,22.0598,VALID,100,VALID,1.47773,
2015-02-08, 09:20:04,VALID,919.494,VALID,0,VALID,82.836,VALID,147.946,VALID,21.9996,VALID,107,VALID,1.81328,
2015-02-08, 09:21:04,VALID,919.474,VALID,0,VALID,82.5692,VALID,140.426,VALID,21.9216,VALID,103,VALID,2.34609,
2015-02-08, 09:22:04,VALID,919.505,VALID,0,VALID,82.6912,VALID,155.79,VALID,21.8045,VALID,124,VALID,1.38359,
2015-02-08, 09:23:04,VALID,919.473,VALID,0,VALID,83.4917,VALID,176.741,VALID,21.746,VALID,94,VALID,2.42852,
2015-02-08, 09:24:04,VALID,919.511,VALID,0,VALID,83.7204,VALID,191.353,VALID,21.7282,VALID,116,VALID,1.60547,
2015-02-08, 09:25:04,VALID,919.493,VALID,0,VALID,82.2262,VALID,209.08,VALID,21.6485,VALID,136,VALID,2.50391,
2015-02-08, 09:26:04,VALID,919.461,VALID,0,VALID,83.1486,VALID,221.006,VALID,21.6095,VALID,150,VALID,0.707031,
2015-02-08, 09:27:04,VALID,919.488,VALID,0,VALID,82.8818,VALID,233.362,VALID,21.6095,VALID,115,VALID,2.45391,
2015-02-08, 09:28:04,VALID,919.454,VALID,0,VALID,82.8208,VALID,217.246,VALID,21.5721,VALID,103,VALID,2.87891,
2015-02-08, 09:29:04,VALID,919.481,VALID,0,VALID,83.7051,VALID,187.915,VALID,21.6111,VALID,80,VALID,1.88086,
2015-02-08, 09:30:04,VALID,919.459,VALID,0,VALID,84.4979,VALID,168.575,VALID,21.6306,VALID,97,VALID,2.41133,
2015-02-08, 09:31:04,VALID,919.535,VALID,0,VALID,85.0773,VALID,159.55,VALID,21.668,VALID,115,VALID,1.725,
2015-02-08, 09:32:04,VALID,919.551,VALID,0,VALID,83.9796,VALID,149.773,VALID,21.6696,VALID,81,VALID,2.06172,
2015-02-08, 09:33:04,VALID,919.59,VALID,0,VALID,83.8347,VALID,147.517,VALID,21.6111,VALID,94,VALID,1.95703,
2015-02-08, 09:34:04,VALID,919.562,VALID,0,VALID,84.2311,VALID,159.335,VALID,21.5526,VALID,118,VALID,2.32578,
2015-02-08, 09:35:04,VALID,919.54,VALID,0,VALID,83.9796,VALID,173.947,VALID,21.5136,VALID,97,VALID,0.784766,
2015-02-08, 09:36:04,VALID,919.564,VALID,0,VALID,84.8791,VALID,165.674,VALID,21.5526,VALID,137,VALID,0,
2015-02-08, 09:37:04,VALID,919.568,VALID,0,VALID,84.9401,VALID,149.128,VALID,21.6306,VALID,144,VALID,0.707812,
2015-02-08, 09:38:04,VALID,919.622,VALID,0,VALID,84.7266,VALID,132.582,VALID,21.6111,VALID,82,VALID,1.62422,
2015-02-08, 09:39:04,VALID,919.591,VALID,0,VALID,84.2083,VALID,119.045,VALID,21.5705,VALID,65,VALID,2.75117,
2015-02-08, 09:40:04,VALID,919.62,VALID,0,VALID,83.6899,VALID,113.35,VALID,21.5331,VALID,89,VALID,0.226953,
2015-02-08, 09:41:04,VALID,919.668,VALID,0,VALID,84.4446,VALID,115.177,VALID,21.5136,VALID,116,VALID,0,
2015-02-08, 09:42:04,VALID,919.665,VALID,0,VALID,83.6517,VALID,125.169,VALID,21.5136,VALID,120,VALID,1.38516,
2015-02-08, 09:43:04,INVALID - VALUE NOT AVAILABLE,0,VALID,0,VALID,83.8347,VALID,132.475,VALID,21.4941,INVALID,360,INVALID,0,
2015-02-08, 09:44:04,VALID,919.637,VALID,0,VALID,83.5298,VALID,130.541,VALID,21.5136,VALID,129,VALID,0.151953,
2015-02-08, 09:45:04,VALID,919.649,VALID,0,VALID,83.7585,VALID,122.375,VALID,21.5152,VALID,122,VALID,1.87148,
2015-02-08, 09:46:04,VALID,919.657,VALID,0,VALID,83.789,VALID,119.26,VALID,21.4957,VALID,101,VALID,0.309375,
2015-02-08, 09:47:04,VALID,919.607,VALID,0,VALID,83.6975,VALID,121.731,VALID,21.4957,VALID,98,VALID,1.08438,
2015-02-08, 09:48:04,VALID,919.624,VALID,0,VALID,83.4307,VALID,128.5,VALID,21.4746,VALID,123,VALID,0.914453,
2015-02-08, 09:49:04,VALID,919.621,VALID,0,VALID,83.5298,VALID,143.864,VALID,21.4355,VALID,118,VALID,1.82148,
2015-02-08, 09:50:04,VALID,919.597,VALID,0,VALID,83.7508,VALID,160.947,VALID,21.4177,VALID,102,VALID,1.38164,
2015-02-08, 09:51:04,VALID,919.592,VALID,0,VALID,84.5513,VALID,169.435,VALID,21.4567,VALID,132,VALID,0.729688,
2015-02-08, 09:52:04,VALID,919.581,VALID,0,VALID,84.2464,VALID,175.559,VALID,21.5152,VALID,110,VALID,1.55781,
2015-02-08, 09:53:04,VALID,919.598,VALID,0,VALID,84.6275,VALID,185.551,VALID,21.5721,VALID,133,VALID,0,
2015-02-08, 09:54:04,VALID,919.6,VALID,0,VALID,84.2997,VALID,206.287,VALID,21.6501,VALID,87,VALID,0,
2015-02-08, 09:55:04,VALID,919.597,VALID,0,VALID,83.5145,VALID,214.453,VALID,21.8062,VALID,139,VALID,0,
2015-02-08, 09:56:04,VALID,919.596,VALID,0,VALID,83.3544,VALID,203.064,VALID,21.9038,VALID,83,VALID,0,
2015-02-08, 09:57:04,VALID,919.596,VALID,0,VALID,82.775,VALID,194.898,VALID,21.9249,VALID,85,VALID,1.47969,
2015-02-08, 09:58:04,VALID,919.602,VALID,0,VALID,82.2643,VALID,197.047,VALID,21.8842,VALID,104,VALID,1.42578,
2015-02-08, 09:59:04,VALID,919.594,VALID,0,VALID,83.1334,VALID,196.08,VALID,21.8647,VALID,85,VALID,0.355078,
2015-02-08, 10:00:04,VALID,919.594,VALID,0,VALID,82.1728,VALID,196.08,VALID,21.8469,VALID,79,VALID,2.09453,
2015-02-08, 10:01:04,VALID,919.604,VALID,0,VALID,82.7369,VALID,193.824,VALID,21.7867,VALID,91,VALID,0.738672,
2015-02-08, 10:02:04,VALID,919.604,VALID,0,VALID,81.7916,VALID,190.386,VALID,21.7688,VALID,117,VALID,2.03164,
2015-02-08, 10:03:04,VALID,919.591,VALID,0,VALID,82.8742,VALID,189.096,VALID,21.7282,VALID,52,VALID,2.28359,
2015-02-08, 10:04:04,VALID,919.61,VALID,0,VALID,83.0876,VALID,187.7,VALID,21.8079,VALID,94,VALID,0.829297,
2015-02-08, 10:05:04,VALID,919.638,VALID,0,VALID,83.6441,VALID,181.361,VALID,21.8647,VALID,103,VALID,0.208203,
2015-02-08, 10:06:04,VALID,919.615,VALID,0,VALID,82.0584,VALID,173.732,VALID,21.8469,VALID,129,VALID,1.14609,
2015-02-08, 10:07:04,VALID,919.629,VALID,0,VALID,82.2414,VALID,170.079,VALID,21.8859,VALID,138,VALID,0.137891,
2015-02-08, 10:08:04,VALID,919.602,VALID,0,VALID,82.9123,VALID,173.195,VALID,21.964,VALID,61,VALID,1.13398,
2015-02-08, 10:09:04,VALID,919.624,VALID,0,VALID,83.1486,VALID,177.923,VALID,21.9818,VALID,73,VALID,0.0253906,
2015-02-08, 10:10:04,VALID,919.609,VALID,0,VALID,82.4625,VALID,181.146,VALID,21.964,VALID,84,VALID,1.75742,
2015-02-08, 10:11:04,VALID,919.607,VALID,0,VALID,82.8665,VALID,179.964,VALID,21.9054,VALID,69,VALID,1.48047,
2015-02-08, 10:12:04,VALID,919.594,VALID,0,VALID,82.0966,VALID,183.295,VALID,21.9038,VALID,67,VALID,2.74883,
2015-02-08, 10:13:04,VALID,919.641,VALID,0,VALID,82.3634,VALID,191.245,VALID,21.8842,VALID,73,VALID,2.28398,
2015-02-08, 10:14:04,VALID,919.624,VALID,0,VALID,82.1804,VALID,202.204,VALID,21.8257,VALID,97,VALID,2.0082,
2015-02-08, 10:15:04,VALID,919.627,VALID,0,VALID,82.8055,VALID,206.502,VALID,21.8274,VALID,100,VALID,1.38945,
2015-02-08, 10:16:04,VALID,919.636,VALID,0,VALID,83.3849,VALID,203.708,VALID,21.8062,VALID,54,VALID,2.07617,
2015-02-08, 10:17:04,VALID,919.61,VALID,0,VALID,82.5692,VALID,190.063,VALID,21.8274,VALID,47,VALID,2.2125,
2015-02-08, 10:18:04,VALID,919.638,VALID,0,VALID,82.4854,VALID,175.022,VALID,21.8469,VALID,74,VALID,1.52891,
2015-02-08, 10:19:04,VALID,919.62,VALID,0,VALID,82.1652,VALID,185.229,VALID,21.8257,VALID,52,VALID,2.24219,
2015-02-08, 10:20:04,VALID,919.617,VALID,0,VALID,82.7217,VALID,201.022,VALID,21.8079,VALID,66,VALID,2.34609,
2015-02-08, 10:21:04,VALID,919.649,VALID,0,VALID,83.5603,VALID,215.957,VALID,21.8079,VALID,69,VALID,1.49258,
2015-02-08, 10:22:04,VALID,919.647,VALID,0,VALID,84.1396,VALID,231.751,VALID,21.8257,VALID,90,VALID,0.462891,
2015-02-08, 10:23:04,VALID,919.672,VALID,0,VALID,82.6378,VALID,255.065,VALID,21.8859,VALID,104,VALID,2.24609,
2015-02-08, 10:24:04,VALID,919.628,VALID,0,VALID,81.6392,VALID,310.827,VALID,21.8274,VALID,136,VALID,3.44531,
2015-02-08, 10:25:04,VALID,919.614,VALID,0,VALID,82.4549,VALID,341.77,VALID,21.8062,VALID,87,VALID,0.507813,
2015-02-08, 10:26:04,VALID,919.611,VALID,0,VALID,83.0495,VALID,337.043,VALID,21.9054,VALID,47,VALID,1.1793,
2015-02-08, 10:27:04,VALID,919.596,VALID,0,VALID,83.202,VALID,339.621,VALID,22.1379,VALID,36,VALID,0,
2015-02-08, 10:28:04,VALID,919.604,VALID,0,VALID,80.145,VALID,419.235,VALID,22.2354,VALID,124,VALID,1.16914,
2015-02-08, 10:29:04,VALID,919.624,VALID,0,VALID,81.6163,VALID,441.798,VALID,22.3737,VALID,116,VALID,0.412891,
2015-02-08, 10:30:04,VALID,919.617,VALID,0,VALID,81.1131,VALID,342.415,VALID,22.4891,VALID,99,VALID,0.461719,
2015-02-08, 10:31:04,VALID,919.606,VALID,0,VALID,79.0472,VALID,318.456,VALID,22.4891,VALID,95,VALID,1.14648,
2015-02-08, 10:32:04,VALID,919.588,VALID,0,VALID,80.5566,VALID,317.489,VALID,22.4306,VALID,85,VALID,0.827734,
2015-02-08, 10:33:04,VALID,919.599,VALID,0,VALID,80.1069,VALID,309.645,VALID,22.3737,VALID,122,VALID,1.76445,
2015-02-08, 10:34:04,VALID,919.63,VALID,0,VALID,80.6481,VALID,312.224,VALID,22.294,VALID,99,VALID,1.21641,
2015-02-08, 10:35:04,VALID,919.602,VALID,0,VALID,80.3737,VALID,344.564,VALID,22.2957,VALID,112,VALID,1.14219,
2015-02-08, 10:36:04,VALID,919.623,VALID,0,VALID,80.8387,VALID,369.598,VALID,22.2762,VALID,117,VALID,1.51875,
2015-02-08, 10:37:04,VALID,919.627,VALID,0,VALID,81.0522,VALID,473.493,VALID,22.3135,VALID,99,VALID,1.26719,
2015-02-08, 10:38:04,VALID,919.631,VALID,0,VALID,80.3889,VALID,399.251,VALID,22.3933,VALID,134,VALID,1.90664,
2015-02-08, 10:39:04,VALID,919.627,VALID,0,VALID,79.3216,VALID,369.168,VALID,22.4111,VALID,80,VALID,2.2168,
2015-02-08, 10:40:04,VALID,919.649,VALID,0,VALID,80.1983,VALID,365.192,VALID,22.5103,VALID,87,VALID,1.53555,
2015-02-08, 10:41:04,VALID,919.654,VALID,0,VALID,79.4894,VALID,351.977,VALID,22.5477,VALID,120,VALID,1.61563,
2015-02-08, 10:42:04,VALID,919.64,VALID,0,VALID,79.4284,VALID,362.077,VALID,22.4696,VALID,107,VALID,2.49414,
2015-02-08, 10:43:04,VALID,919.663,VALID,0,VALID,79.0015,VALID,424.178,VALID,22.3916,VALID,99,VALID,2.07461,
2015-02-08, 10:44:04,VALID,919.662,VALID,0,VALID,80.5566,VALID,378.408,VALID,22.4501,VALID,80,VALID,1.77617,
2015-02-08, 10:45:04,VALID,919.654,VALID,0,VALID,78.4602,VALID,356.597,VALID,22.4891,VALID,46,VALID,1.26523,
2015-02-08, 10:46:04,VALID,919.651,VALID,0,VALID,79.1616,VALID,333.605,VALID,22.6257,VALID,101,VALID,1.09023,
2015-02-08, 10:47:04,VALID,919.612,VALID,0,VALID,79.0701,VALID,352.407,VALID,22.6647,VALID,49,VALID,1.60703,
2015-02-08, 10:48:04,VALID,919.636,VALID,0,VALID,79.7333,VALID,410.64,VALID,22.7038,VALID,72,VALID,1.76367,
2015-02-08, 10:49:04,VALID,919.632,VALID,0,VALID,79.314,VALID,406.557,VALID,22.7038,VALID,83,VALID,1.40742,
2015-02-08, 10:50:04,VALID,919.602,VALID,0,VALID,78.0562,VALID,375.829,VALID,22.6452,VALID,88,VALID,0.673047,
2015-02-08, 10:51:04,VALID,919.57,VALID,0,VALID,78.445,VALID,480.584,VALID,22.5884,VALID,70,VALID,2.32773,
2015-02-08, 10:52:04,VALID,919.584,VALID,0,VALID,80.0382,VALID,402.475,VALID,22.6647,VALID,103,VALID,0.6,
2015-02-08, 10:53:04,VALID,919.585,VALID,0,VALID,78.079,VALID,411.822,VALID,22.7038,VALID,95,VALID,2.80977,
2015-02-08, 10:54:04,VALID,919.562,VALID,0,VALID,78.1934,VALID,382.92,VALID,22.6257,VALID,75,VALID,2.13047,
2015-02-08, 10:55:04,VALID,919.579,VALID,0,VALID,79.6571,VALID,388.292,VALID,22.6435,VALID,64,VALID,1.5207,
2015-02-08, 10:56:04,VALID,919.533,VALID,0,VALID,79.84,VALID,371.531,VALID,22.7996,VALID,35,VALID,1.41406,
2015-02-08, 10:57:04,VALID,919.548,VALID,0,VALID,79.5808,VALID,326.406,VALID,23.0941,VALID,43,VALID,1.2043,
2015-02-08, 10:58:04,VALID,919.587,VALID,0,VALID,77.9113,VALID,320.067,VALID,23.0533,VALID,75,VALID,1.45664,
2015-02-08, 10:59:04,VALID,919.57,VALID,0,VALID,77.7283,VALID,300.62,VALID,22.9753,VALID,54,VALID,2.74336,
2015-02-08, 11:00:04,VALID,919.555,VALID,0,VALID,77.8046,VALID,297.505,VALID,22.8599,VALID,40,VALID,2.63047,
2015-02-08, 11:01:04,VALID,919.518,VALID,0,VALID,77.7512,VALID,337.902,VALID,22.7233,VALID,39,VALID,2.5375,
2015-02-08, 11:02:04,VALID,919.521,VALID,0,VALID,78.201,VALID,402.689,VALID,22.624,VALID,70,VALID,3.08047,
2015-02-08, 11:03:04,VALID,919.489,VALID,0,VALID,78.3763,VALID,369.49,VALID,22.5459,VALID,78,VALID,1.75078,
2015-02-08, 11:04:04,VALID,919.525,VALID,0,VALID,78.5364,VALID,381.846,VALID,22.4289,VALID,60,VALID,2.23398,
2015-02-08, 11:05:04,VALID,919.457,VALID,0,VALID,79.3826,VALID,445.344,VALID,22.3916,VALID,52,VALID,2.39102,
2015-02-08, 11:06:04,VALID,919.482,VALID,0,VALID,79.4436,VALID,468.443,VALID,22.5069,VALID,89,VALID,0.101172,
2015-02-08, 11:07:04,VALID,919.492,VALID,0,VALID,79.6266,VALID,443.732,VALID,22.6435,VALID,92,VALID,0.911328,
2015-02-08, 11:08:04,VALID,919.474,VALID,0,VALID,78.6965,VALID,450.716,VALID,22.7021,VALID,73,VALID,1.92344,